User: anonymous   Login
Location: Campillo
(40.8621°N, 4.2488°W)
Time: 00:14:35
(UTC+00:00)
Language:

USA 306 - Orbit

View from above orbital plane
View from above orbital plane
View from above satellite
View from above satellite

Ground track
Ground track

The orbit data is extracted from the following two-line orbital elements,

1 45874U 20046B   21197.92340822 0.00001500  00000-0  12196-3 0    01
2 45874  53.9710 136.6032 0005086 224.7569 135.2430 14.99116306    08
Epoch (UTC): 16 July 2021 22:09:42
Eccentricity: 0.0005086
inclination: 53.9710°
perigee height: 566 km
apogee height: 573 km
right ascension of ascending node: 136.6032°
argument of perigee: 224.7569°
revolutions per day: 14.99116306
mean anomaly at epoch: 135.2430°
orbit number at epoch: 0

The dashed part of the orbit path shows where the satellite is in the earth's shadow,  

DLR